Home   Weather   Hanoi   Past weeks

Flag for Vietnam Past Weather in Hanoi, Vietnam — Yesterday and Last 2 Weeks

Now
61 °F

Partly cloudy.


Feels Like: 61 °F
Forecast: 58 / 69 °F
Wind: 7 mph from Northeast

Location: Ha Noi Airport

Current Time: Jan 18, 2017 at 12:29:21 am

Latest Report: Jan 17, 2017 at 11:30 pm


Visibility: N/A

Pressure: 30.15 "Hg

Humidity: 94%

Dew Point: 59 °F

Location of HanoiLocation

Past Weather in Hanoi — Graph

°F

Hanoi Temperature Yesterday

Maximum temperature yesterday: 64 °F (at 2:00 pm)
Minimum temperature yesterday: 59 °F (at 1:00 am)
Average temperature yesterday: 61 °F

High & Low Weather Summary for the Past Weeks

 TemperatureHumidityPressure
High81 °F (Jan 4, 2:00 pm)100% (Jan 3, 2:00 am)30.18 "Hg (Jan 3, 2:00 am)
Low54 °F (Jan 12, 10:00 pm)54% (Jan 4, 10:00 am)29.80 "Hg (Jan 7, 3:00 pm)
Average67 °F88%30.00 "Hg
* Reported Jan 2 11:00 pm — Jan 17 11:30 pm, Hanoi, Weather by CustomWeather, © 2017

Note: Actual official high and low records may vary slightly from our data, if they occured in-between our weather recording intervals... More about our weather records

Advertising

Hanoi Weather History for the Previous 24 Hours

Scroll right to see more
 ConditionsComfort  
Time TempWeatherWind HumidityBarometerVisibility
11:30 pm
Tue, Jan 17
61 °FPartly cloudy.7 mph94%30.15 "HgN/A
11:00 pm61 °FPartly cloudy.7 mph88%30.15 "HgN/A
10:30 pm61 °FPartly cloudy.6 mph88%30.15 "HgN/A
10:00 pm61 °FPartly cloudy.7 mph88%30.15 "HgN/A
9:30 pm61 °FPartly cloudy.7 mph94%30.15 "HgN/A
9:00 pm63 °FPassing clouds.6 mph88%30.15 "HgN/A
8:30 pm61 °FPassing clouds.7 mph94%30.15 "HgN/A
7:30 pm63 °FClear.7 mph88%30.12 "Hg10 mi
7:00 pm63 °FClear.7 mph83%30.12 "Hg10 mi
6:30 pm63 °FClear.7 mph83%30.09 "Hg10 mi
6:00 pm63 °FPassing clouds.7 mph88%30.09 "HgN/A
5:30 pm63 °FPartly sunny.8 mph88%30.09 "HgN/A
5:00 pm63 °FPartly sunny.8 mph88%30.07 "HgN/A
4:30 pm64 °FSunny.9 mph83%30.07 "Hg10 mi
4:00 pm64 °FPartly sunny.9 mph83%30.07 "HgN/A
3:30 pm64 °FPartly sunny.8 mph83%30.07 "HgN/A
2:30 pm64 °FBroken clouds.9 mph83%30.07 "HgN/A
2:00 pm64 °FBroken clouds.9 mph78%30.07 "HgN/A
1:30 pm63 °FPartly sunny.8 mph83%30.09 "HgN/A
1:00 pm63 °FBroken clouds.8 mph88%30.09 "HgN/A
12:30 pm63 °FLight rain. Broken clouds.7 mph88%30.12 "HgN/A
12:00 pm63 °FBroken clouds.8 mph88%30.15 "HgN/A
11:30 am63 °FBroken clouds.7 mph88%30.15 "HgN/A
11:00 am63 °FBroken clouds.7 mph88%30.18 "HgN/A
10:00 am61 °FBroken clouds.8 mph94%30.18 "HgN/A
9:30 am59 °FBroken clouds.7 mph94%30.18 "HgN/A
9:00 am61 °FLight rain. Broken clouds.6 mph100%30.18 "Hg5 mi
8:30 am61 °FBroken clouds.8 mph100%30.15 "Hg4 mi
8:00 am61 °FBroken clouds.6 mph100%30.15 "Hg4 mi
7:30 am61 °FBroken clouds.7 mph100%30.12 "Hg5 mi
7:00 am61 °FBroken clouds.7 mph100%30.12 "Hg4 mi
6:30 am61 °FPartly cloudy.6 mph100%30.09 "Hg5 mi
6:00 am61 °FPartly cloudy.7 mph100%30.09 "Hg4 mi
5:30 am59 °FPartly cloudy.7 mph100%30.07 "Hg4 mi
5:00 am59 °FFog.7 mph100%30.07 "Hg3 mi
4:30 am59 °FFog.6 mph100%30.07 "Hg3 mi
4:00 am59 °FFog.6 mph100%30.07 "Hg3 mi
3:30 am59 °FFog.6 mph100%30.07 "Hg3 mi
3:00 am59 °FFog.6 mph100%30.07 "Hg2 mi
2:30 am59 °FFog.5 mph100%30.07 "Hg2 mi
2:00 am59 °FLight rain. Fog.6 mph100%30.07 "Hg3 mi
1:30 am59 °FLight rain. Fog.6 mph100%30.07 "Hg2 mi
1:00 am59 °FLight rain. Fog.6 mph100%30.09 "Hg1 mi
12:30 am61 °FLight rain. Fog.5 mph100%30.09 "Hg1 mi
12:00 am61 °FLight rain. Fog.6 mph100%30.09 "Hg2 mi
Weather by CustomWeather, © 2017

See weather overviewHow to use our weather pages